Regional Weather Roundup
Issued by NWS

Home | Current Version | Previous Version | Text Only | Print | Product List | Glossary On
Versions: 1 2 3 4 5 6 7 8 9 10 11 12 13 14 15 16 17 18 19 20 21 22 23 24 25 26 27 28 29 30 31 32 33 34 35 36 37 38 39 40 41 42 43 44 45 46 47 48 49 50
000
ASUS43 KLSX 300907
RWRMO

WEATHER SUMMARY FOR MISSOURI
NATIONAL WEATHER SERVICE SPRINGFIELD MO
400 AM CDT TUE JUN 30 2015

NOTE: "FAIR" INDICATES FEW OR NO CLOUDS BELOW 12,000 FEET WITH NO
       SIGNIFICANT WEATHER AND/OR OBSTRUCTIONS TO VISIBILITY.
       CURRENT SKY AND/OR WEATHER CONDITIONS ARE NOT AVAILABLE FOR
       CHILLICOTHE AND FARMINGTON.

MOZ001>031-035>038-043-044-053-054-301000-
...NORTHERN AND WESTERN MISSOURI...

CITY           SKY/WX    TMP DP  RH WIND       PRES   REMARKS
KANSAS CTY INT PTCLDY    68  65  90 SW8       29.92S
KANSAS C DTWN  CLEAR     72  67  84 CALM      29.91S
LEE`S SUMMIT   CLEAR     68  63  84 SW5       29.93S
ST JOSEPH      PTCLDY    67  66  97 CALM      29.92R FOG
CHILLICOTHE      N/A     66  64  93 CALM      29.91S
KIRKSVILLE     CLEAR     66  63  90 SW5       29.89S

$$
MOZ066>068-077>081-088>096-101>105-301000-
...SOUTHWEST MISSOURI...

CITY           SKY/WX    TMP DP  RH WIND       PRES   REMARKS
SPRINGFIELD    CLEAR     69  62  78 W5        29.95S
JOPLIN         CLEAR     66  63  90 CALM      29.96S

$$
MOZ032>034-039>042-045>050-055>058-069>072-301000-
...CENTRAL MISSOURI...

CITY           SKY/WX    TMP DP  RH WIND       PRES   REMARKS
COLUMBIA       CLEAR     69  66  90 W5        29.90S
JEFFERSON CITY PTCLDY    68  66  93 CALM      29.89S
ROLLA          CLEAR     65  64  97 SW5       29.90S
SEDALIA        PTCLDY    72  64  76 W6        29.92S
WHITEMAN AFB   CLEAR     69  65  87 W5        29.90S
WARRENSBURG    CLEAR     68  64  88 CALM      29.91S
OSAGE BEACH    MOCLDY    66  64  94 CALM      29.92R

$$
MOZ051-052-059>065-301000-
...EAST CENTRAL MISSOURI...

CITY           SKY/WX    TMP DP  RH WIND       PRES   REMARKS
ST LOUIS INTL  CLEAR     72  66  81 CALM      29.87S
SPIRIT OF STL  CLEAR     67  67 100 CALM      29.86S
ST CHARLES       N/A     67  66  97 SW3       29.86R FOG

$$
MOZ072>076-082>087-097>100-106>115-301000-
...SOUTH CENTRAL AND SOUTHEAST MISSOURI...

CITY           SKY/WX    TMP DP  RH WIND       PRES   REMARKS
CAPE GIRARDEAU CLEAR     69  67  93 CALM      29.86F
FARMINGTON     MOCLDY    68  64  88 SW5       29.93S
POPLAR BLUFF   CLEAR     70  66  87 CALM      29.87F
WEST PLAINS    CLEAR     67  64  90 W3        29.95F

$$


USA.gov is the U.S. government's official web portal to all federal, state and local government web resources and services.